• In Hungary
  • List of Countries
  • For 7 days
  • Water Temperature
  • Satellite Maps
  • Weather Map
  • News
  • Weather Widgets
  • user-avatar
    Login

    Hourly Weather Straubing

    Today, 17 August, Friday

    Time Temperature Precipitation Wind Pressure Humidity
    00:00 +20°C° 0 mm 1 mps 733 mmHg 79%
    01:00 +19°C° 0 mm 1 mps 733 mmHg 78%
    02:00 +19°C° 0 mm 1 mps 733 mmHg 78%
    03:00 +18°C° 0 mm 1 mps 733 mmHg 78%
    04:00 +18°C° 0 mm 1 mps 733 mmHg 79%
    05:00 +19°C° 0 mm 1 mps 733 mmHg 77%
    06:00 +20°C° 0 mm 1 mps 733 mmHg 75%
    07:00 +21°C° 0 mm 1 mps 733 mmHg 72%
    08:00 +23°C° 0 mm 1 mps 733 mmHg 66%
    09:00 +25°C° 0 mm 1 mps 734 mmHg 59%
    10:00 +28°C° 0 mm 1 mps 734 mmHg 53%
    11:00 +29°C° 0 mm 1 mps 734 mmHg 49%
    12:00 +30°C° 0 mm 1 mps 734 mmHg 46%
    13:00 +31°C° 0 mm 1 mps 734 mmHg 42%
    14:00 +31°C° 0 mm 1 mps 734 mmHg 43%
    15:00 +30°C° 0 mm 1 mps 734 mmHg 43%
    16:00 +30°C° 0 mm 1 mps 734 mmHg 43%
    17:00 +28°C° 0 mm 1 mps 734 mmHg 49%
    18:00 +26°C° 0 mm 1 mps 734 mmHg 55%
    19:00 +24°C° 0 mm 1 mps 734 mmHg 61%
    20:00 +23°C° 0 mm 1 mps 734 mmHg 63%
    21:00 +22°C° 0 mm 1 mps 734 mmHg 65%
    22:00 +20°C° 0 mm 0 mps 735 mmHg 66%
    23:00 +19°C° 0 mm 0 mps 735 mmHg 67%

    Tomorrow, 18 August, Saturday

    Time Temperature Precipitation Wind Pressure Humidity
    00:00 +21°C° 0 mm 1 mps 735 mmHg 69%
    01:00 +20°C° 0 mm 1 mps 735 mmHg 70%
    02:00 +20°C° 0 mm 1 mps 735 mmHg 73%
    03:00 +19°C° 0 mm 1 mps 736 mmHg 75%
    04:00 +19°C° 0 mm 1 mps 736 mmHg 78%
    05:00 +20°C° 0 mm 1 mps 736 mmHg 77%
    06:00 +20°C° 0 mm 1 mps 736 mmHg 77%
    07:00 +21°C° 0 mm 1 mps 736 mmHg 77%
    08:00 +23°C° 0 mm 1 mps 737 mmHg 71%
    09:00 +25°C° 0 mm 1 mps 737 mmHg 66%
    10:00 +27°C° 0 mm 1 mps 737 mmHg 60%
    11:00 +28°C° 0.2 mm 1 mps 737 mmHg 57%
    12:00 +29°C° 0.2 mm 1 mps 737 mmHg 54%
    13:00 +29°C° 0.2 mm 0 mps 737 mmHg 51%
    14:00 +30°C° 0.2 mm 1 mps 737 mmHg 51%
    15:00 +30°C° 0.2 mm 1 mps 737 mmHg 51%
    16:00 +29°C° 0.2 mm 1 mps 737 mmHg 51%
    17:00 +28°C° 0.1 mm 1 mps 737 mmHg 58%
    18:00 +26°C° 0.1 mm 1 mps 737 mmHg 65%
    19:00 +24°C° 0.1 mm 1 mps 737 mmHg 71%
    20:00 +23°C° 0 mm 1 mps 737 mmHg 74%
    21:00 +22°C° 0 mm 1 mps 737 mmHg 77%
    22:00 +21°C° 0 mm 1 mps 738 mmHg 80%
    23:00 +21°C° 0 mm 1 mps 738 mmHg 81%

    Day after tomorrow, 19 August, Sunday

    Time Temperature Precipitation Wind Pressure Humidity
    00:00 +20°C° 0 mm 1 mps 738 mmHg 83%
    01:00 +20°C° 0 mm 1 mps 738 mmHg 85%
    02:00 +20°C° 0 mm 1 mps 738 mmHg 86%
    03:00 +19°C° 0 mm 1 mps 737 mmHg 88%
    04:00 +19°C° 0 mm 1 mps 737 mmHg 89%
    05:00 +20°C° 0 mm 1 mps 738 mmHg 87%
    06:00 +20°C° 0 mm 1 mps 738 mmHg 85%
    07:00 +19°C° 0 mm 0 mps 738 mmHg 83%
    08:00 +21°C° 0 mm 0 mps 738 mmHg 75%
    09:00 +24°C° 0 mm 0 mps 738 mmHg 68%
    10:00 +26°C° 0 mm 0 mps 738 mmHg 60%
    11:00 +27°C° 0.2 mm 0 mps 738 mmHg 57%
    12:00 +30°C° 0.2 mm 1 mps 737 mmHg 54%
    13:00 +31°C° 0.2 mm 1 mps 737 mmHg 51%
    14:00 +30°C° 0.2 mm 1 mps 737 mmHg 51%
    15:00 +30°C° 0.2 mm 1 mps 737 mmHg 50%
    16:00 +30°C° 0.2 mm 1 mps 736 mmHg 50%
    17:00 +28°C° 0.1 mm 1 mps 736 mmHg 56%
    18:00 +27°C° 0.1 mm 1 mps 736 mmHg 62%
    19:00 +25°C° 0.1 mm 1 mps 736 mmHg 69%
    20:00 +24°C° 0.1 mm 1 mps 736 mmHg 71%
    21:00 +23°C° 0.1 mm 1 mps 737 mmHg 73%
    22:00 +20°C° 0.1 mm 0 mps 737 mmHg 75%
    23:00 +22°C° 0 mm 1 mps 737 mmHg 77%

    20 August, Monday

    Time Temperature Precipitation Wind Pressure Humidity
    00:00 +21°C° 0 mm 1 mps 736 mmHg 78%
    01:00 +21°C° 0 mm 1 mps 736 mmHg 80%
    02:00 +18°C° 0 mm 0 mps 736 mmHg 81%
    03:00 +18°C° 0 mm 0 mps 736 mmHg 83%
    04:00 +17°C° 0 mm 0 mps 736 mmHg 85%
    05:00 +18°C° 0 mm 0 mps 736 mmHg 83%
    06:00 +21°C° 0 mm 1 mps 736 mmHg 81%
    07:00 +22°C° 0 mm 1 mps 736 mmHg 79%
    08:00 +24°C° 0.1 mm 1 mps 736 mmHg 72%
    09:00 +25°C° 0.1 mm 1 mps 736 mmHg 65%
    10:00 +27°C° 0.1 mm 1 mps 736 mmHg 59%
    11:00 +28°C° 0.2 mm 1 mps 736 mmHg 55%
    12:00 +29°C° 0.2 mm 1 mps 736 mmHg 52%
    13:00 +30°C° 0.2 mm 2 mps 736 mmHg 48%
    14:00 +30°C° 0.1 mm 2 mps 736 mmHg 47%
    15:00 +30°C° 0.1 mm 2 mps 735 mmHg 46%
    16:00 +30°C° 0.1 mm 2 mps 735 mmHg 46%
    17:00 +28°C° 0 mm 1 mps 735 mmHg 52%
    18:00 +26°C° 0 mm 1 mps 735 mmHg 58%
    19:00 +25°C° 0 mm 1 mps 735 mmHg 65%
    20:00 +24°C° 0 mm 1 mps 735 mmHg 67%
    21:00 +23°C° 0 mm 1 mps 736 mmHg 69%
    22:00 +22°C° 0 mm 1 mps 736 mmHg 71%
    23:00 +21°C° 0 mm 1 mps 736 mmHg 72%

    21 August, Tuesday

    Time Temperature Precipitation Wind Pressure Humidity
    00:00 +21°C° 0 mm 1 mps 736 mmHg 74%
    01:00 +20°C° 0 mm 1 mps 736 mmHg 76%
    02:00 +20°C° 0 mm 1 mps 736 mmHg 78%
    03:00 +19°C° 0 mm 1 mps 736 mmHg 80%
    04:00 +19°C° 0 mm 1 mps 736 mmHg 82%
    05:00 +18°C° 0 mm 0 mps 736 mmHg 81%
    06:00 +18°C° 0 mm 0 mps 737 mmHg 79%
    07:00 +19°C° 0 mm 0 mps 737 mmHg 77%
    08:00 +21°C° 0 mm 0 mps 737 mmHg 71%
    09:00 +26°C° 0 mm 1 mps 737 mmHg 64%
    10:00 +28°C° 0 mm 1 mps 737 mmHg 57%
    11:00 +28°C° 0 mm 1 mps 737 mmHg 54%
    12:00 +29°C° 0 mm 1 mps 737 mmHg 51%
    13:00 +30°C° 0 mm 1 mps 736 mmHg 48%
    14:00 +30°C° 0 mm 1 mps 736 mmHg 48%
    15:00 +30°C° 0 mm 1 mps 736 mmHg 48%
    16:00 +30°C° 0 mm 1 mps 736 mmHg 49%
    17:00 +28°C° 0 mm 1 mps 736 mmHg 55%
    18:00 +26°C° 0 mm 1 mps 736 mmHg 62%
    19:00 +24°C° 0 mm 1 mps 736 mmHg 68%
    20:00 +23°C° 0 mm 1 mps 736 mmHg 71%
    21:00 +22°C° 0 mm 1 mps 736 mmHg 73%
    22:00 +22°C° 0 mm 1 mps 736 mmHg 76%
    23:00 +19°C° 0 mm 0 mps 736 mmHg 78%

    22 August, Wednesday

    Time Temperature Precipitation Wind Pressure Humidity
    00:00 +19°C° 0 mm 0 mps 736 mmHg 81%
    01:00 +18°C° 0 mm 0 mps 736 mmHg 83%
    02:00 +18°C° 0 mm 0 mps 736 mmHg 85%
    03:00 +17°C° 0 mm 0 mps 736 mmHg 86%
    04:00 +17°C° 0 mm 0 mps 736 mmHg 88%
    05:00 +18°C° 0 mm 0 mps 736 mmHg 85%
    06:00 +19°C° 0 mm 0 mps 736 mmHg 83%
    07:00 +20°C° 0 mm 0 mps 736 mmHg 80%
    08:00 +22°C° 0 mm 0 mps 736 mmHg 73%
    09:00 +24°C° 0 mm 0 mps 736 mmHg 66%
    10:00 +26°C° 0 mm 0 mps 736 mmHg 58%
    11:00 +27°C° 0 mm 0 mps 736 mmHg 54%
    12:00 +30°C° 0 mm 1 mps 736 mmHg 51%
    13:00 +31°C° 0 mm 1 mps 736 mmHg 47%
    14:00 +30°C° 0 mm 1 mps 735 mmHg 46%
    15:00 +30°C° 0 mm 1 mps 735 mmHg 45%
    16:00 +30°C° 0 mm 1 mps 735 mmHg 45%
    17:00 +28°C° 0 mm 1 mps 735 mmHg 51%
    18:00 +26°C° 0 mm 1 mps 735 mmHg 58%
    19:00 +25°C° 0 mm 1 mps 735 mmHg 64%
    20:00 +24°C° 0 mm 1 mps 735 mmHg 67%
    21:00 +23°C° 0 mm 1 mps 736 mmHg 69%
    22:00 +22°C° 0 mm 1 mps 736 mmHg 71%
    23:00 +21°C° 0 mm 1 mps 736 mmHg 74%
    Show more